Location: Banff
(51.1667°N, 115.5667°W)
Time: 02:36:12
(UTC+00:00)

deb Explorer IX - Pass Details

Date: 02 December 2020
Orbit: 536 x 1104 km, 38.8° (Epoch: 25 January)

Event Time Altitude Azimuth Distance (km) Brightness Sun altitude
Rises 00:11:53 0° 235° (SW) 3,660 ? -5.4°
Reaches altitude 10° 00:15:14 10° 221° (SW) 2,613 ? -5.8°
Maximum altitude 00:19:51 22° 173° (S) 1,759 ? -6.5°
Drops below altitude 10° 00:23:59 10° 124° (SE) 2,310 ? -7.0°
Sets 00:26:45 0° 109° (ESE) 3,131 ? -7.4°
